[[{"header":{"parameterUnit":"m.s-1","parameterCategory":1,"la1":30.2991,"la2":30.254,"lo1":-89.0895,"lo2":-89.0444,"dy":0.0017,"dx":0.0017,"nx":28,"ny":28,"refTime":"2024-07-09T09:00:00:Z","depth":0,"parameterNumber":2,"parameterNumberName":"U-component_of_WINDS"},"data":[0,0,0,0,0,0,0,0,0,0,0,0,0,0,0,0,0,0,0,0,0,0,0,0,0,0,0,0,0,0,0,0,0,0,0,0,0,0,0,0,0,0,0,0,0,0,0,0,0,0,0,0,0,0,0,0,0,0,1.5651,1.565,0,1.5599,1.5598,1.5598,1.5511,1.5509,1.5507,1.5506,1.5454,1.5454,1.5455,0,0,0,0,0,0,0,0,0,0,0,0,0,1.5676,1.5676,1.5651,1.565,1.565,1.5599,1.5598,1.5598,1.5511,1.5509,1.5507,1.5505,1.5454,1.5454,1.5455,0,0,0,0,0,0,0,0,0,0,0,0,0,1.5649,1.5676,1.5651,1.56,1.5595,1.5599,1.5598,1.5597,1.5511,1.5509,1.5507,1.5504,1.5454,1.5454,1.5455,1.5504,0,0,1.5455,1.5455,0,0,0,0,0,0,0,0,1.565,1.5648,1.5608,1.5604,1.5598,1.5559,1.5588,1.5566,1.5512,1.5543,1.5506,1.5503,1.5491,1.5488,1.5484,1.5502,1.55,1.5455,1.5455,1.5455,1.5455,0,0,0,0,0,0,0,1.5652,1.565,1.563,1.5608,1.5602,1.558,1.5574,1.5583,1.5532,1.554,1.5534,1.5529,1.5488,1.5484,1.5482,1.5499,1.5455,1.5455,1.5456,1.5456,1.5553,1.5556,0,0,0,0,0,0,1.5661,1.5652,1.5632,1.5629,1.5619,1.5582,1.5574,1.5574,1.5531,1.5522,1.5531,1.5525,1.5485,1.5482,1.548,1.5533,1.5455,1.5456,1.5456,1.5551,1.5554,1.5557,0,0,0,0,0,0,1.5662,1.5661,1.5634,1.5638,1.5633,1.5584,1.5584,1.5574,1.557,1.5524,1.5514,1.5536,1.5483,1.5479,1.5498,1.553,1.5456,1.5456,1.5548,1.5552,1.5555,1.5643,0,0,0,0,0,0,1.5663,1.5661,1.568,1.5639,1.5633,1.5654,1.5586,1.5575,1.557,1.5562,1.5526,1.5518,1.548,1.5498,1.5499,1.5529,1.5456,1.5545,1.555,1.5554,1.5637,1.5649,1.5659,0,0,0,0,0,1.5665,1.5707,1.5681,1.5679,1.5655,1.5656,1.5652,1.5607,1.5573,1.5591,1.5561,1.5519,1.5527,1.5501,1.55,1.5532,1.5543,1.5548,1.5554,1.5632,1.5646,1.5659,0,0,0,0,0,0,1.5753,1.5701,1.5671,1.5702,1.5684,1.5641,1.5662,1.5625,1.5616,1.5609,1.5554,1.5547,1.5573,1.5554,1.5526,1.5577,1.5528,1.5534,1.5588,1.5602,1.5613,1.5616,1.5456,0,0,0,0,0,1.5776,1.578,1.5735,1.5766,1.5758,1.5712,1.5711,1.5678,1.5657,1.5649,1.562,1.5602,1.56,1.56,1.5596,1.5634,1.5624,1.5655,1.5667,1.5676,1.5681,1.5698,1.5711,1.5575,1.5575,1.5575,0,0,1.5824,1.5796,1.5802,1.5783,1.5765,1.577,1.5706,1.5715,1.5718,1.565,1.5665,1.5644,1.562,1.5648,1.5659,1.5634,1.5717,1.5683,1.5691,1.5691,1.5706,1.5719,1.573,1.5579,1.5578,1.5577,0,0,1.5913,1.5893,1.5915,1.5899,1.5872,1.5841,1.5846,1.5809,1.5792,1.5806,1.5755,1.5758,1.5757,1.5741,1.5733,1.5816,1.5776,1.5816,1.5875,1.5892,1.5903,1.5912,1.594,1.5951,1.5822,1.5822,1.5822,0,1.5975,1.5981,1.5932,1.5944,1.5937,1.5875,1.5897,1.5883,1.5857,1.5854,1.5826,1.5821,1.5801,1.5823,1.5843,1.584,1.5844,1.5819,1.5905,1.5914,1.5922,1.5948,1.5959,1.5827,1.5826,1.5826,1.5825,0,1.6058,1.6063,1.6085,1.606,1.6056,1.6073,1.6027,1.6028,1.5996,1.5968,1.5983,1.5956,1.5945,1.5948,1.5917,1.5966,1.5951,1.5915,1.5865,1.5941,1.5964,1.5974,1.5834,1.5832,1.5831,1.5829,0,0,1.6201,1.6148,1.6157,1.6144,1.611,1.6113,1.6128,1.6116,1.6117,1.6101,1.6111,1.6111,1.6077,1.6068,1.6035,1.605,1.6115,1.6012,1.601,1.6031,1.6166,1.6193,1.6205,1.6089,1.6091,1.6093,1.6168,0,1.6281,1.6302,1.6258,1.629,1.6293,1.6234,1.6246,1.6227,1.6201,1.62,1.6172,1.6172,1.6128,1.6122,1.6134,1.6105,1.6142,1.6099,1.6097,1.6098,1.6104,1.6217,1.6245,1.6318,1.6177,1.6178,1.618,0,1.6378,1.6366,1.6397,1.636,1.636,1.6372,1.6356,1.6357,1.6333,1.6313,1.6303,1.6263,1.6275,1.6227,1.6242,1.6213,1.621,1.6196,1.6198,1.6194,1.6142,1.6216,1.634,1.635,1.6194,1.6193,1.6192,0,1.6476,1.6468,1.6485,1.6477,1.6434,1.6444,1.6427,1.64,1.6396,1.6383,1.6379,1.6369,1.6363,1.6355,1.6314,1.6283,1.6332,1.6282,1.6315,1.6317,1.6327,1.6327,1.6451,1.6328,1.6328,1.6328,1.6328,0,1.657,1.6591,1.6529,1.6539,1.6561,1.6511,1.6534,1.6511,1.6489,1.6493,1.6443,1.6448,1.6394,1.6394,1.6362,1.6377,1.6375,1.6359,1.635,1.6363,1.6365,1.6359,1.6352,1.6331,1.633,1.633,1.6329,0,1.6683,1.6642,1.6657,1.6615,1.6605,1.6623,1.6587,1.6595,1.6566,1.6573,1.6572,1.6527,1.6523,1.6482,1.647,1.6448,1.6476,1.6459,1.6484,1.6478,1.6513,1.6509,1.6636,1.6649,1.652,1.6522,1.6523,0,1.6744,1.6759,1.6719,1.6718,1.6703,1.6703,1.6697,1.6649,1.6646,1.662,1.6631,1.6624,1.6615,1.6613,1.6579,1.6569,1.655,1.6595,1.6548,1.656,1.6549,1.6548,1.6548,1.6605,1.6606,1.6608,1.6609,0,1.6857,1.6836,1.683,1.6817,1.6812,1.68,1.6784,1.6787,1.6734,1.6732,1.6728,1.6722,1.6709,1.6702,1.6687,1.6669,1.663,1.6624,1.6631,1.6643,1.6656,1.6648,1.6509,1.6621,1.662,1.6619,1.6618,1.6618,1.6944,1.6954,1.6927,1.6922,1.6905,1.6892,1.6897,1.6868,1.6864,1.6849,1.6822,1.6822,1.6797,1.6772,1.6757,1.6756,1.6733,1.6744,1.6746,1.6749,1.6755,1.6658,1.6754,1.6753,1.6753,1.6752,1.6752,0,1.7053,1.7032,1.7028,1.7008,1.7004,1.6968,1.6949,1.6948,1.6948,1.6928,1.6921,1.6916,1.6909,1.6874,1.6863,1.6869,1.6851,1.6868,1.6866,1.6862,1.6777,1.6772,1.6883,1.6883,1.6883,1.6883,1.6883,1.6883,1.7108,1.7122,1.7099,1.7104,1.7083,1.7082,1.7075,1.7062,1.7046,1.7042,1.7036,1.7013,1.6987,1.6974,1.6966,1.6956,1.6954,1.6976,1.696,1.6881,1.6869,1.6857,1.6851,1.6977,1.6977,1.7045,1.7045,1.7046]},{"header":{"parameterUnit":"m.s-1","parameterCategory":1,"la1":30.2991,"la2":30.254,"lo1":-89.0895,"lo2":-89.0444,"dy":0.0017,"dx":0.0017,"nx":28,"ny":28,"refTime":"2024-07-09T09:00:00:Z","depth":0,"parameterNumber":3,"parameterNumberName":"V-component_of_WINDS"},"data":[0,0,0,0,0,0,0,0,0,0,0,0,0,0,0,0,0,0,0,0,0,0,0,0,0,0,0,0,0,0,0,0,0,0,0,0,0,0,0,0,0,0,0,0,0,0,0,0,0,0,0,0,0,0,0,0,0,0,6.3497,6.3498,0,6.3654,6.3655,6.3657,6.3626,6.3623,6.362,6.3617,6.377,6.3777,6.3784,0,0,0,0,0,0,0,0,0,0,0,0,0,6.3161,6.3167,6.3496,6.3498,6.35,6.3653,6.3655,6.3658,6.3626,6.3623,6.3619,6.3616,6.3768,6.3776,6.3784,0,0,0,0,0,0,0,0,0,0,0,0,0,6.3311,6.3169,6.3496,6.3503,6.3506,6.3653,6.3656,6.3658,6.3627,6.3623,6.3619,6.3615,6.3766,6.3775,6.3785,6.3933,0,0,6.3816,6.382,0,0,0,0,0,0,0,0,6.3302,6.3323,6.35,6.3503,6.3506,6.3616,6.3593,6.375,6.3628,6.3581,6.3617,6.3612,6.3722,6.3735,6.3774,6.394,6.3946,6.3817,6.3823,6.3827,6.383,0,0,0,0,0,0,0,6.3292,6.3316,6.3558,6.3503,6.3506,6.3496,6.3513,6.3623,6.3673,6.3585,6.3583,6.3602,6.3723,6.3764,6.3777,6.3949,6.3817,6.3826,6.3832,6.3836,6.424,6.4244,0,0,0,0,0,0,6.328,6.3308,6.3553,6.3563,6.3392,6.3505,6.3524,6.3585,6.3672,6.3681,6.3606,6.36,6.3749,6.3765,6.3782,6.3958,6.3827,6.3837,6.3843,6.4235,6.4241,6.4246,0,0,0,0,0,0,6.3273,6.3302,6.3547,6.3435,6.3465,6.3516,6.3584,6.359,6.3632,6.3688,6.3696,6.364,6.3746,6.3768,6.3895,6.3963,6.3841,6.385,6.423,6.4237,6.4243,6.4313,0,0,0,0,0,0,6.3264,6.33,6.3359,6.3437,6.3472,6.366,6.3589,6.3596,6.365,6.3645,6.3722,6.373,6.3745,6.3881,6.3905,6.3975,6.3858,6.4224,6.4233,6.4241,6.4305,6.4321,6.4336,0,0,0,0,0,6.3252,6.3371,6.3362,6.3392,6.3546,6.3664,6.3684,6.37,6.3656,6.3714,6.3749,6.3728,6.3952,6.3894,6.3922,6.3995,6.4219,6.423,6.424,6.4298,6.4318,6.4335,0,0,0,0,0,0,6.3297,6.3381,6.3372,6.3521,6.3586,6.3659,6.3732,6.3722,6.3799,6.379,6.3805,6.3822,6.3951,6.3986,6.3919,6.4141,6.4079,6.4096,6.4113,6.4133,6.4148,6.4136,6.3867,0,0,0,0,0,6.3325,6.3417,6.3484,6.3608,6.3642,6.3682,6.3734,6.3741,6.3808,6.3834,6.3879,6.3942,6.4027,6.4082,6.4163,6.431,6.4324,6.4374,6.439,6.4402,6.4415,6.4493,6.4514,6.428,6.428,6.428,0,0,6.3383,6.344,6.3496,6.3619,6.367,6.3761,6.3705,6.3804,6.3871,6.3848,6.3971,6.4006,6.4078,6.4215,6.4277,6.4248,6.4484,6.4416,6.4425,6.4432,6.4506,6.4528,6.4547,6.4288,6.4286,6.4285,0,0,6.3534,6.3588,6.3696,6.3749,6.3828,6.3854,6.388,6.3954,6.3977,6.4102,6.4086,6.4164,6.431,6.4361,6.4406,6.4575,6.4557,6.4601,6.4681,6.4756,6.4774,6.4791,6.4848,6.4869,6.4614,6.4615,6.4615,0,6.3594,6.3734,6.3753,6.3854,6.3906,6.3893,6.4,6.405,6.415,6.4186,6.4152,6.4334,6.4381,6.4529,6.457,6.4608,6.4635,6.4591,6.4771,6.4787,6.4803,6.4858,6.4879,6.4619,6.4619,6.4618,6.4618,0,6.3803,6.39,6.3978,6.4077,6.4139,6.4243,6.4274,6.4334,6.4335,6.4363,6.4488,6.4545,6.4636,6.4671,6.4673,6.4818,6.4797,6.4768,6.4705,6.4829,6.4881,6.4902,6.4626,6.4624,6.4623,6.4622,0,0,6.3987,6.4095,6.4123,6.4167,6.4253,6.4326,6.4428,6.452,6.4569,6.4639,6.4722,6.4846,6.4818,6.4869,6.4876,6.4943,6.5069,6.4904,6.4906,6.493,6.5229,6.5249,6.5274,6.5059,6.5063,6.5066,6.5222,0,6.4143,6.4326,6.4345,6.4507,6.4594,6.4582,6.467,6.473,6.4759,6.4835,6.4866,6.4952,6.4911,6.4941,6.5007,6.504,6.5129,6.503,6.5133,6.5136,6.5113,6.5301,6.5324,6.5468,6.5243,6.5246,6.5249,0,6.4351,6.4428,6.4599,6.4671,6.4708,6.4788,6.4872,6.4946,6.5013,6.5029,6.5086,6.5084,6.5185,6.5121,6.5259,6.5191,6.5234,6.5257,6.5263,6.5271,6.5198,6.5312,6.5515,6.5535,6.5281,6.5279,6.5276,0,6.4464,6.4611,6.4731,6.477,6.4857,6.4913,6.4951,6.5014,6.5067,6.514,6.5174,6.5257,6.5301,6.5364,6.5383,6.5335,6.552,6.5458,6.5532,6.5532,6.557,6.5567,6.578,6.5603,6.5602,6.5602,6.5601,0,6.4636,6.474,6.4783,6.4857,6.4973,6.4992,6.5105,6.514,6.5196,6.5274,6.5268,6.5341,6.5364,6.544,6.5455,6.5565,6.5586,6.5599,6.5601,6.5599,6.5596,6.5625,6.5615,6.5607,6.5606,6.5605,6.5604,0,6.4781,6.4815,6.4945,6.5017,6.5038,6.5119,6.518,6.5249,6.5277,6.5376,6.54,6.5442,6.5531,6.5557,6.5664,6.5674,6.5802,6.5797,6.578,6.578,6.5852,6.5844,6.6089,6.6121,6.5925,6.5927,6.5928,0,6.4887,6.4967,6.5049,6.5102,6.5143,6.5229,6.5283,6.5305,6.5361,6.5443,6.5501,6.559,6.5662,6.5804,6.5842,6.5922,6.5917,6.5997,6.5929,6.5923,6.5915,6.5909,6.5916,6.6009,6.6012,6.6013,6.6015,0,6.5071,6.5083,6.5164,6.5249,6.5315,6.5383,6.5448,6.5491,6.5522,6.5585,6.5677,6.5732,6.5842,6.5928,6.601,6.6046,6.6034,6.6036,6.6057,6.6054,6.604,6.6046,6.5813,6.603,6.6028,6.6027,6.6026,6.6026,6.5198,6.5268,6.5336,6.5424,6.5476,6.5537,6.5606,6.5642,6.572,6.5812,6.582,6.5918,6.598,6.6089,6.613,6.6205,6.6181,6.6212,6.622,6.6227,6.6231,6.603,6.622,6.622,6.6219,6.6219,6.6219,0,6.5379,6.5422,6.5504,6.5596,6.5665,6.5652,6.5723,6.578,6.5868,6.5928,6.6,6.6104,6.6187,6.6233,6.6315,6.6366,6.6363,6.6387,6.6382,6.639,6.6249,6.6222,6.6388,6.6388,6.6388,6.6388,6.6388,6.6388,6.5481,6.5598,6.5618,6.5759,6.5801,6.59,6.5941,6.5996,6.6044,6.6161,6.6232,6.6262,6.6315,6.6401,6.6476,6.6487,6.6516,6.6543,6.655,6.6418,6.64,6.6383,6.6357,6.655,6.655,6.6684,6.6685,6.6686]}]]